This is the latest recevied weather packets stored in our database for station/object SP1BMW-13. If no packets are shown the sender has not sent any weather packets the latest 10 day(s).
| Time | Temp. | Humidity | Pressure | Rain* | Wind** | Luminosity | Snow |
|---|---|---|---|---|---|---|---|
| 1778304545 | 8.33° C | 74% | 1021.2 hPa | 0 mm | 0 m/s | 114 W/m² | - |
| 1778304485 | 8.33° C | 74% | 1021.3 hPa | 0 mm | 0 m/s | 112 W/m² | - |
| 1778304425 | 8.33° C | 74% | 1021.1 hPa | 0 mm | 0.45 m/s, 7° | 109 W/m² | - |
| 1778304365 | 8.33° C | 73% | 1021.1 hPa | 0 mm | 0.45 m/s, 316° | 106 W/m² | - |
| 1778304305 | 8.33° C | 73% | 1021.4 hPa | 0 mm | 0.89 m/s, 334° | 104 W/m² | - |
| 1778304245 | 8.33° C | 73% | 1021.3 hPa | 0 mm | 0.45 m/s, 307° | 102 W/m² | - |
| 1778304185 | 8.33° C | 73% | 1021.2 hPa | 0 mm | 0 m/s | 99 W/m² | - |
| 1778304125 | 8.33° C | 73% | 1021.2 hPa | 0 mm | 0 m/s | 96 W/m² | - |
| 1778304065 | 8.33° C | 74% | 1021.2 hPa | 0 mm | 0.45 m/s, 51° | 93 W/m² | - |
| 1778304005 | 8.33° C | 73% | 1021.1 hPa | 0 mm | 0.45 m/s, 298° | 90 W/m² | - |
| 1778303946 | 8.33° C | 73% | 1021.2 hPa | 0 mm | 0 m/s | 85 W/m² | - |
| 1778303885 | 8.89° C | 73% | 1021.2 hPa | 0 mm | 0.45 m/s, 350° | 82 W/m² | - |
| 1778303825 | 8.89° C | 72% | 1021.2 hPa | 0 mm | 0.45 m/s, 321° | 79 W/m² | - |
| 1778303765 | 8.89° C | 72% | 1021.2 hPa | 0 mm | 0.45 m/s, 301° | 76 W/m² | - |
| 1778303705 | 8.89° C | 71% | 1021.1 hPa | 0 mm | 0 m/s | 74 W/m² | - |
| 1778303645 | 8.89° C | 73% | 1021.2 hPa | 0 mm | 0 m/s | 73 W/m² | - |
| 1778303585 | 8.89° C | 73% | 1021.3 hPa | 0 mm | 0 m/s | 72 W/m² | - |
| 1778303525 | 8.89° C | 74% | 1021 hPa | 0 mm | 0 m/s | 72 W/m² | - |
| 1778303465 | 8.89° C | 72% | 1021.1 hPa | 0 mm | 0 m/s | 71 W/m² | - |
| 1778303405 | 8.89° C | 73% | 1021 hPa | 0 mm | 0 m/s | 70 W/m² | - |
| 1778303346 | 8.89° C | 72% | 1021 hPa | 0 mm | 0 m/s | 69 W/m² | - |
| 1778303285 | 8.89° C | 72% | 1020.9 hPa | 0 mm | 0 m/s | 69 W/m² | - |
| 1778303225 | 8.89° C | 73% | 1021 hPa | 0 mm | 0 m/s | 69 W/m² | - |
| 1778303165 | 8.89° C | 72% | 1021.1 hPa | 0 mm | 0 m/s | 69 W/m² | - |
| 1778303105 | 8.89° C | 73% | 1020.9 hPa | 0 mm | 0 m/s | 69 W/m² | - |
* Rain latest hour (hover to see other rain measurements)
** Current wind speed in m/s (hover to see current wind gust speed)